FW0237 Tampa FL US current weather conditions

sailwx.info

Wind from 132 at 4 knots gusting 12

Air temperature 36.7° C
Dewpoint 24.9° C

Last reported at 2019-Jul-21 22:07 UTC.
Time now 2019-Jul-21 23:08 UTC

Location: N 27°52' W 082°31'.
View on Google Maps.

See reports from other nearby stations

  
Tides and Currents Weather Stations Pressure Air Temp Water Temp Dewpoint Dewpoint Depression Visibility Wind Speed Wind Dir Waves Ship Positions
date/time (UTC)wind fromknots sea level pressurealtimeterstation pressurevisibilityair tempwater tempwave heightnotes
2019-Jul-21 22:07 132 4 gusting 12 36.7
2019-Jul-21 22:02 223 3 gusting 12 36.7
2019-Jul-21 21:57 236 3 gusting 9 36.7
2019-Jul-21 21:52 274 3 gusting 9 36.7
2019-Jul-21 21:47 225 3 gusting 9 37.2
2019-Jul-21 21:42 169 3 gusting 9 36.7
2019-Jul-21 21:38 186 3 gusting 10 36.7
2019-Jul-21 21:32 202 3 gusting 10 36.7
2019-Jul-21 21:27 350 4 gusting 10 36.7
2019-Jul-21 21:22 240 4 gusting 10 36.7
2019-Jul-21 21:17 269 3 gusting 9 37.2
2019-Jul-21 21:12 277 2 gusting 7 36.7
2019-Jul-21 21:07 173 3 gusting 9 37.2
2019-Jul-21 21:02 281 3 gusting 9 36.7
2019-Jul-21 20:57 240 2 gusting 9 37.2
2019-Jul-21 20:52 242 2 gusting 8 37.2
2019-Jul-21 20:47 056 3 gusting 10 37.2
2019-Jul-21 20:42 287 3 gusting 10 36.7
2019-Jul-21 20:37 108 2 gusting 8 37.2
2019-Jul-21 20:32 257 3 gusting 7 36.7
2019-Jul-21 20:27 171 3 gusting 7 37.2
2019-Jul-21 20:22 228 3 gusting 10 37.2
2019-Jul-21 20:17 245 3 gusting 10 37.2
2019-Jul-21 20:12 210 3 gusting 8 37.2
2019-Jul-21 20:07 287 3 gusting 8 37.2
2019-Jul-21 20:02 044 2 gusting 8 37.2
2019-Jul-21 19:58 157 3 gusting 8 37.2
2019-Jul-21 19:52 175 3 gusting 9 37.2
2019-Jul-21 19:47 284 3 gusting 9 37.2
2019-Jul-21 19:42 217 3 gusting 9 36.7
2019-Jul-21 19:37 252 3 gusting 9 36.7
2019-Jul-21 19:32 161 3 gusting 9 36.7
2019-Jul-21 19:27 240 3 gusting 9 36.7
2019-Jul-21 19:22 252 2 gusting 9 36.7
2019-Jul-21 19:18 184 2 gusting 8 37.2
2019-Jul-21 19:12 355 3 gusting 9 36.7
2019-Jul-21 19:07 211 4 gusting 12 36.1
2019-Jul-21 19:02 182 3 gusting 12 36.1
2019-Jul-21 18:57 200 3 gusting 9 36.1
2019-Jul-21 18:52 265 3 gusting 9 36.7
2019-Jul-21 18:47 293 3 gusting 7 36.1
2019-Jul-21 18:42 216 2 gusting 7 36.7
2019-Jul-21 18:38 167 2 gusting 6 36.7
2019-Jul-21 18:32 244 1 gusting 7 36.1
2019-Jul-21 18:28 279 2 gusting 7 35.6
2019-Jul-21 18:22 264 3 gusting 10 36.1
2019-Jul-21 18:18 285 2 gusting 10 36.1
2019-Jul-21 18:12 261 2 gusting 8 36.1
2019-Jul-21 18:07 261 2 gusting 8 36.7
2019-Jul-21 18:02 288 2 gusting 8 36.1
2019-Jul-21 17:57 075 3 gusting 10 36.7
2019-Jul-21 17:53 296 3 gusting 10 36.1
2019-Jul-21 17:47 136 3 gusting 9 36.1
2019-Jul-21 17:42 187 3 gusting 9 36.1
2019-Jul-21 17:37 311 4 gusting 9 35.6
2019-Jul-21 17:32 262 3 gusting 9 35.6
2019-Jul-21 17:27 279 2 gusting 7 36.1
2019-Jul-21 17:22 206 2 gusting 6 36.1
2019-Jul-21 17:17 217 2 gusting 8 36.1
2019-Jul-21 17:12 213 3 gusting 11 35.6
2019-Jul-21 17:07 281 4 gusting 11 35.6
2019-Jul-21 17:02 325 3 gusting 7 35.6
2019-Jul-21 16:57 269 2 gusting 7 35.6
2019-Jul-21 16:52 340 2 gusting 11 35.6
2019-Jul-21 16:47 238 2 gusting 11 35.6
2019-Jul-21 16:42 301 3 gusting 9 35.0
2019-Jul-21 16:37 288 3 gusting 9 35.0
2019-Jul-21 16:32 169 3 gusting 7 35.6
2019-Jul-21 16:27 299 2 gusting 7 35.6
2019-Jul-21 16:22 298 2 gusting 8 35.0
2019-Jul-21 16:17 237 3 gusting 8 35.0
2019-Jul-21 16:12 194 3 gusting 9 34.4
2019-Jul-21 16:07 218 3 gusting 9 34.4
2019-Jul-21 16:02 270 4 gusting 9 34.4
2019-Jul-21 15:57 243 4 gusting 9 34.4
2019-Jul-21 15:52 273 3 gusting 9 33.9
2019-Jul-21 15:47 286 2 gusting 8 34.4
2019-Jul-21 15:42 229 3 gusting 7 34.4
2019-Jul-21 15:37 268 4 gusting 8 33.9
2019-Jul-21 15:32 257 3 gusting 8 33.9
2019-Jul-21 15:27 252 2 gusting 7 33.3
2019-Jul-21 15:22 214 2 gusting 6 33.9
2019-Jul-21 15:17 275 2 gusting 6 33.3
2019-Jul-21 15:12 238 2 gusting 6 33.3
2019-Jul-21 15:07 265 2 gusting 7 33.3
2019-Jul-21 15:02 221 3 gusting 8 33.3
2019-Jul-21 14:57 262 2 gusting 8 32.8
2019-Jul-21 14:52 286 2 gusting 6 33.3
2019-Jul-21 14:47 165 2 gusting 8 32.8
2019-Jul-21 14:42 236 2 gusting 8 32.2
2019-Jul-21 14:37 259 2 gusting 8 32.2
2019-Jul-21 14:32 271 2 gusting 8 32.2
2019-Jul-21 14:27 251 2 gusting 6 32.2
2019-Jul-21 14:22 285 2 gusting 9 32.2
2019-Jul-21 14:17 260 2 gusting 9 31.7
2019-Jul-21 14:12 290 2 gusting 6 31.7
2019-Jul-21 14:07 194 2 gusting 6 31.7
2019-Jul-21 14:02 212 2 gusting 6 31.1
2019-Jul-21 13:57 184 2 gusting 6 31.1
2019-Jul-21 13:52 244 2 gusting 8 31.7
2019-Jul-21 13:47 300 2 gusting 9 31.1
2019-Jul-21 13:42 169 3 gusting 9 31.1
2019-Jul-21 13:37 221 3 gusting 7 31.1
2019-Jul-21 13:32 294 3 gusting 7 30.6
2019-Jul-21 13:27 184 2 gusting 7 30.6
2019-Jul-21 13:22 267 2 gusting 7 30.6
2019-Jul-21 13:17 172 3 gusting 8 30.6
2019-Jul-21 13:12 184 3 gusting 9 30.6
2019-Jul-21 13:07 260 3 gusting 11 30.6
2019-Jul-21 13:02 264 2 gusting 11 30.0
2019-Jul-21 12:57 224 2 gusting 7 30.0
2019-Jul-21 12:52 249 2 gusting 7 30.0
2019-Jul-21 12:47 259 2 gusting 7 30.0
2019-Jul-21 12:42 304 2 gusting 8 30.0
2019-Jul-21 12:37 218 2 gusting 8 29.4
2019-Jul-21 12:32 244 3 gusting 7 29.4
2019-Jul-21 12:27 202 3 gusting 8 29.4
2019-Jul-21 12:22 294 2 gusting 8 29.4
2019-Jul-21 12:17 240 2 gusting 6 28.9
2019-Jul-21 12:12 279 1 gusting 6 28.9
2019-Jul-21 12:07 274 2 gusting 8 28.9
2019-Jul-21 12:02 227 3 gusting 9 28.3
2019-Jul-21 11:57 232 3 gusting 9 28.3
2019-Jul-21 11:52 290 2 gusting 10 28.3
2019-Jul-21 11:47 255 2 gusting 10 28.3
2019-Jul-21 11:42 223 2 gusting 8 28.3
2019-Jul-21 11:37 210 2 gusting 8 27.8
2019-Jul-21 11:32 051 2 gusting 6 27.8
2019-Jul-21 11:27 223 2 gusting 10 27.8
2019-Jul-21 11:22 244 2 gusting 10 27.8
2019-Jul-21 11:17 263 2 gusting 6 27.2
2019-Jul-21 11:12 197 2 gusting 10 27.2
2019-Jul-21 11:07 265 2 gusting 10 27.2
2019-Jul-21 11:02 194 1 gusting 7 27.2
2019-Jul-21 10:57 268 1 gusting 6 27.2
2019-Jul-21 10:52 208 1 gusting 7 27.2
2019-Jul-21 10:47 282 2 gusting 7 26.7
2019-Jul-21 10:42 157 1 gusting 6 26.7
2019-Jul-21 10:37 199 0 gusting 6 26.7
2019-Jul-21 10:32 167 1 gusting 6 26.7
2019-Jul-21 10:27 161 2 gusting 8 26.7
2019-Jul-21 10:22 194 1 gusting 8 27.2
2019-Jul-21 10:17 192 1 gusting 8 27.2
2019-Jul-21 10:12 186 2 gusting 8 27.2
2019-Jul-21 10:07 242 2 gusting 9 27.2
2019-Jul-21 10:02 192 2 gusting 9 27.2
2019-Jul-21 09:57 183 1 gusting 6 27.2
2019-Jul-21 09:52 233 1 gusting 6 27.2
2019-Jul-21 09:47 185 1 gusting 6 27.2
2019-Jul-21 09:42 223 1 gusting 7 27.2
2019-Jul-21 09:37 219 2 gusting 7 27.2
2019-Jul-21 09:32 188 2 gusting 7 27.2
2019-Jul-21 09:27 217 2 gusting 7 27.2
2019-Jul-21 09:22 215 1 gusting 7 27.2
2019-Jul-21 09:17 229 2 gusting 6 27.2
2019-Jul-21 09:12 200 2 gusting 6 27.2
2019-Jul-21 09:07 248 1 gusting 6 27.2
2019-Jul-21 09:02 217 1 gusting 7 27.2
2019-Jul-21 08:57 186 2 gusting 7 27.2
2019-Jul-21 08:52 216 1 gusting 7 27.8
2019-Jul-21 08:47 196 1 gusting 7 27.8
2019-Jul-21 08:42 232 1 gusting 6 27.8
2019-Jul-21 08:37 182 2 gusting 6 27.8
2019-Jul-21 08:32 221 1 gusting 6 27.8
2019-Jul-21 08:27 246 1 gusting 6 27.8
2019-Jul-21 08:22 200 1 gusting 5 27.8
2019-Jul-21 08:17 266 1 gusting 4 27.8
2019-Jul-21 08:12 242 1 gusting 6 27.8
2019-Jul-21 08:07 261 2 gusting 7 27.8
2019-Jul-21 08:02 179 1 gusting 7 27.8
2019-Jul-21 07:57 178 1 gusting 6 27.8
2019-Jul-21 07:52 258 1 gusting 6 27.8
2019-Jul-21 07:47 234 1 gusting 8 27.8
2019-Jul-21 07:42 265 1 gusting 11 28.3
2019-Jul-21 07:37 225 2 gusting 11 28.3
2019-Jul-21 07:32 227 1 gusting 7 28.3
2019-Jul-21 07:27 263 1 gusting 6 28.3
2019-Jul-21 07:22 172 1 gusting 6 28.3
2019-Jul-21 07:17 178 1 gusting 6 28.3
2019-Jul-21 07:12 229 1 gusting 5 28.3
2019-Jul-21 07:07 209 1 gusting 5 28.3
2019-Jul-21 07:02 285 1 gusting 6 28.3
2019-Jul-21 06:57 203 1 gusting 6 28.9
2019-Jul-21 06:52 173 0 gusting 6 28.9
2019-Jul-21 06:47 212 1 gusting 6 28.9
2019-Jul-21 06:42 211 0 gusting 4 28.9
2019-Jul-21 06:37 232 1 gusting 6 29.4
2019-Jul-21 06:32 209 1 gusting 6 29.4
2019-Jul-21 06:27 184 1 gusting 6 29.4
2019-Jul-21 06:22 219 2 gusting 6 29.4
2019-Jul-21 06:17 200 2 gusting 6 29.4
2019-Jul-21 06:12 272 2 gusting 6 29.4
2019-Jul-21 06:07 240 1 gusting 6 29.4
2019-Jul-21 06:02 262 2 gusting 7 29.4
2019-Jul-21 05:57 215 2 gusting 7 29.4
2019-Jul-21 05:52 248 2 gusting 7 29.4
2019-Jul-21 05:47 234 2 gusting 7 29.4
2019-Jul-21 05:42 248 2 gusting 7 29.4
2019-Jul-21 05:37 262 1 gusting 6 29.4
2019-Jul-21 05:32 194 1 gusting 6 30.0
2019-Jul-21 05:27 191 1 gusting 6 30.0
2019-Jul-21 05:22 267 1 gusting 6 30.0
2019-Jul-21 05:17 296 1 gusting 6 30.0
2019-Jul-21 05:12 241 1 gusting 6 30.0
2019-Jul-21 05:07 265 1 gusting 6 30.0
2019-Jul-21 05:02 266 2 gusting 6 30.0
2019-Jul-21 04:57 201 1 gusting 6 30.0
2019-Jul-21 04:52 299 0 gusting 6 30.0
2019-Jul-21 04:47 244 2 gusting 7 30.0
2019-Jul-21 04:42 219 2 gusting 7 30.6
2019-Jul-21 04:37 202 1 gusting 7 30.6
2019-Jul-21 04:32 301 1 gusting 7 30.6
2019-Jul-21 04:27 202 1 gusting 6 30.6
2019-Jul-21 04:22 267 1 gusting 6 30.6
2019-Jul-21 04:17 349 1 gusting 6 30.6
2019-Jul-21 04:12 225 2 gusting 6 30.6
2019-Jul-21 04:07 165 2 gusting 7 30.6
2019-Jul-21 04:02 250 2 gusting 7 30.6
2019-Jul-21 03:56 261 1 gusting 7 31.1
2019-Jul-21 03:51 198 0 gusting 4 31.1
2019-Jul-21 03:46 185 1 gusting 7 31.1
2019-Jul-21 03:42 174 2 gusting 7 31.1
2019-Jul-21 03:36 233 1 gusting 6 31.1
2019-Jul-21 03:32 261 2 gusting 6 31.1
2019-Jul-21 03:26 194 2 gusting 6 31.7
2019-Jul-21 03:21 224 2 gusting 6 31.7
2019-Jul-21 03:16 193 1 gusting 7 31.7
2019-Jul-21 03:12 212 2 gusting 7 31.7
2019-Jul-21 03:06 252 2 gusting 8 31.7
2019-Jul-21 03:01 207 2 gusting 9 31.7
2019-Jul-21 02:56 270 2 gusting 9 31.7
2019-Jul-21 02:51 215 2 gusting 6 31.7
2019-Jul-21 02:46 185 1 gusting 6 32.2
2019-Jul-21 02:41 243 1 gusting 6 32.2
2019-Jul-21 02:36 203 1 gusting 6 32.2
2019-Jul-21 02:31 244 1 gusting 6 32.2
2019-Jul-21 02:26 278 1 gusting 6 32.2
2019-Jul-21 02:21 219 2 gusting 6 32.2
2019-Jul-21 02:16 217 2 gusting 6 32.2
2019-Jul-21 02:11 277 2 gusting 8 32.2
2019-Jul-21 02:06 277 2 gusting 8 32.8
2019-Jul-21 02:01 234 1 gusting 7 32.8
2019-Jul-21 01:56 261 1 gusting 6 32.8
2019-Jul-21 01:51 319 1 gusting 6 32.8
2019-Jul-21 01:46 244 1 gusting 6 32.8
2019-Jul-21 01:41 250 2 gusting 6 33.3
2019-Jul-21 01:36 209 2 gusting 9 33.3
2019-Jul-21 01:31 164 2 gusting 9 33.3
2019-Jul-21 01:26 277 2 gusting 7 33.3
2019-Jul-21 01:21 268 1 gusting 6 33.3
2019-Jul-21 01:16 250 2 gusting 8 33.3
2019-Jul-21 01:11 167 2 gusting 8 33.9
2019-Jul-21 01:06 227 1 gusting 7 33.9
2019-Jul-21 01:01 205 1 gusting 5 33.9
2019-Jul-21 00:56 242 1 gusting 6 33.9
2019-Jul-21 00:51 212 0 gusting 6 33.9
2019-Jul-21 00:46 225 1 gusting 6 34.4
2019-Jul-21 00:41 235 1 gusting 6 34.4
2019-Jul-21 00:36 217 1 gusting 6 34.4
2019-Jul-21 00:31 226 1 gusting 6 34.4
2019-Jul-21 00:26 175 1 gusting 5 34.4
2019-Jul-21 00:21 255 1 gusting 6 34.4
2019-Jul-21 00:16 223 1 gusting 6 34.4
2019-Jul-21 00:11 232 2 gusting 6 34.4
2019-Jul-21 00:06 242 2 gusting 6 34.4
2019-Jul-21 00:01 225 1 gusting 6 35.0
2019-Jul-20 23:56 275 2 gusting 8 35.0
2019-Jul-20 23:51 270 3 gusting 8 35.0
2019-Jul-20 23:46 221 3 gusting 7 35.0
2019-Jul-20 23:41 237 3 gusting 8 35.0
2019-Jul-20 23:36 226 4 gusting 11 35.0
2019-Jul-20 23:31 215 3 gusting 11 35.6
2019-Jul-20 23:26 238 3 gusting 7 35.6
2019-Jul-20 23:21 250 2 gusting 7 35.6
2019-Jul-20 23:16 260 2 gusting 6 35.6
2019-Jul-20 23:11 147 2 gusting 8 35.6
2019-Jul-20 23:06 277 3 gusting 11 35.6
2019-Jul-20 23:01 227 3 gusting 11 35.6
2019-Jul-20 22:56 235 3 gusting 10 36.1
2019-Jul-20 22:51 221 4 gusting 13 36.1
2019-Jul-20 22:46 207 3 gusting 13 36.1
2019-Jul-20 22:41 138 3 gusting 8 36.1
2019-Jul-20 22:36 314 4 gusting 11 36.1
2019-Jul-20 22:31 195 3 gusting 11 36.7
2019-Jul-20 22:26 255 3 gusting 13 36.7
2019-Jul-20 22:21 298 4 gusting 13 36.7
2019-Jul-20 22:16 203 4 gusting 12 36.7
2019-Jul-20 22:11 311 3 gusting 12 36.7
2019-Jul-20 22:06 254 4 gusting 12 36.7
2019-Jul-20 22:01 267 4 gusting 12 36.7
2019-Jul-20 21:56 260 4 gusting 15 36.7
2019-Jul-20 21:51 209 4 gusting 15 37.2
2019-Jul-20 21:46 262 4 gusting 12 37.2
2019-Jul-20 21:41 275 5 gusting 13 37.2
2019-Jul-20 21:36 237 5 gusting 13 37.2
2019-Jul-20 21:31 290 5 gusting 14 37.2
2019-Jul-20 21:26 268 4 gusting 14 37.2
2019-Jul-20 21:21 323 4 gusting 12 37.8
2019-Jul-20 21:16 309 4 gusting 9 37.8
2019-Jul-20 21:11 259 3 gusting 10 37.8
2019-Jul-20 21:06 250 4 gusting 13 37.8
2019-Jul-20 21:01 202 2 gusting 13 37.8
2019-Jul-20 20:56 192 2 gusting 6 37.8
2019-Jul-20 20:51 310 3 gusting 8 37.8
2019-Jul-20 20:46 190 3 gusting 11 37.8
2019-Jul-20 20:41 226 3 gusting 11 37.8
2019-Jul-20 20:36 172 3 gusting 8 37.8
2019-Jul-20 20:31 254 3 gusting 11 37.8
2019-Jul-20 20:26 273 3 gusting 11 37.8
2019-Jul-20 20:21 231 3 gusting 10 37.8
2019-Jul-20 20:16 266 3 gusting 9 37.8
2019-Jul-20 20:11 262 3 gusting 9 37.8
2019-Jul-20 20:06 265 3 gusting 13 37.8
2019-Jul-20 20:01 320 3 gusting 13 37.8
2019-Jul-20 19:56 223 3 gusting 7 37.8
2019-Jul-20 19:51 229 2 gusting 7 38.3
2019-Jul-20 19:46 128 2 gusting 9 37.8
2019-Jul-20 19:41 272 3 gusting 9 37.8
2019-Jul-20 19:36 252 3 gusting 8 38.3
2019-Jul-20 19:31 211 3 gusting 8 37.8
2019-Jul-20 19:26 229 4 gusting 9 37.8
2019-Jul-20 19:21 243 4 gusting 9 37.8
2019-Jul-20 19:16 262 3 gusting 9 37.8
2019-Jul-20 19:11 261 2 gusting 8 38.3
2019-Jul-20 19:06 304 2 gusting 8 37.8
2019-Jul-20 19:01 297 2 gusting 6 38.3
2019-Jul-20 18:56 255 2 gusting 7 37.8
2019-Jul-20 18:51 278 2 gusting 9 37.8
2019-Jul-20 18:46 263 2 gusting 9 37.2
2019-Jul-20 18:41 331 1 gusting 6 37.2
2019-Jul-20 18:36 303 1 gusting 6 37.2
2019-Jul-20 18:31 223 1 gusting 6 37.8
2019-Jul-20 18:26 313 1 gusting 6 37.2
2019-Jul-20 18:21 275 2 gusting 6 37.2
2019-Jul-20 18:16 192 2 gusting 6 37.2
2019-Jul-20 18:11 271 3 gusting 6 37.2
2019-Jul-20 18:06 328 2 gusting 0 36.7
2019-Jul-20 17:57 069 3 gusting 8 36.7
2019-Jul-20 17:53 266 2 gusting 8 36.1
2019-Jul-20 17:47 240 2 gusting 6 36.1
2019-Jul-20 17:42 221 2 gusting 2 36.1
2019-Jul-20 17:32 211 2 gusting 6 36.1
2019-Jul-20 17:27 256 2 gusting 6 36.7
2019-Jul-20 17:22 267 2 36.7
2019-Jul-20 17:14 311 2 gusting 8 35.6
2019-Jul-20 17:09 283 3 gusting 8 35.6
2019-Jul-20 16:59 272 2 gusting 6 36.1
2019-Jul-20 16:54 232 2 gusting 6 36.1
2019-Jul-20 16:49 259 2 gusting 8 36.1
2019-Jul-20 16:44 312 2 gusting 8 36.1
2019-Jul-20 16:39 202 2 gusting 5 36.1
2019-Jul-20 16:34 278 2 gusting 2 35.6
2019-Jul-20 16:29 175 2 gusting 1 35.6
2019-Jul-20 16:24 340 2 35.6
2019-Jul-20 16:19 340 2 36.1
2019-Jul-20 16:11 185 3 gusting 7 35.0
2019-Jul-20 16:06 273 2 gusting 7 35.0
2019-Jul-20 16:01 242 1 gusting 6 35.0
2019-Jul-20 15:56 241 1 gusting 5 35.0
2019-Jul-20 15:51 236 0 gusting 5 35.0
2019-Jul-20 15:46 271 1 gusting 6 34.4
2019-Jul-20 15:41 230 2 gusting 6 34.4
2019-Jul-20 15:36 228 1 gusting 5 34.4
2019-Jul-20 15:31 231 0 gusting 2 34.4
2019-Jul-20 15:26 233 1 gusting 3 33.9
2019-Jul-20 15:21 183 1 gusting 3 33.9
2019-Jul-20 15:16 237 1 gusting 1 33.9
2019-Jul-20 15:10 311 0 gusting 0 33.9
2019-Jul-20 01:14 178 0 gusting 3 32.2
2019-Jul-20 01:09 238 0 gusting 3 32.2
2019-Jul-20 01:04 219 0 gusting 4 32.2
2019-Jul-20 00:59 238 0 gusting 4 32.2
2019-Jul-20 00:53 184 0 gusting 3 32.2
2019-Jul-20 00:49 171 0 gusting 3 32.2
2019-Jul-20 00:43 210 0 gusting 2 32.8
2019-Jul-20 00:38 249 0 gusting 2 32.8
2019-Jul-20 00:33 222 0 gusting 5 32.8
2019-Jul-20 00:28 242 0 gusting 5 32.8
2019-Jul-20 00:23 208 1 gusting 4 32.8
2019-Jul-20 00:18 274 1 gusting 4 32.8
2019-Jul-20 00:13 233 1 gusting 4 32.8
2019-Jul-20 00:08 183 1 gusting 4 32.8
2019-Jul-20 00:03 159 1 gusting 5 32.8
2019-Jul-19 23:58 225 1 gusting 5 32.8
2019-Jul-19 23:53 204 1 gusting 6 33.3
2019-Jul-19 23:48 225 1 gusting 6 33.3
2019-Jul-19 23:43 105 1 gusting 5 33.3
2019-Jul-19 23:38 160 1 gusting 6 33.3
2019-Jul-19 23:33 182 1 gusting 6 33.3
2019-Jul-19 23:29 169 1 gusting 6 33.3
2019-Jul-19 23:23 215 0 gusting 6 33.3
2019-Jul-19 23:18 215 1 gusting 6 33.3
2019-Jul-19 23:13 215 2 gusting 6 33.3
2019-Jul-19 23:08 161 1 gusting 6 33.9
2019-Jul-19 23:03 165 1 gusting 6 33.9